Lid_Strength_Index
-1 -1 -1 2 8 8 11 10 7 8 8 5 5 6 7 6 8 11 1 0 -0 -0 -1 -1 -1 -2 -2 -2 -1 -1 -2 -1 -1 -1 -1 -1 -1 -2 -1 -1 -2 -1 -2 -1 -1 -1 -1 -1 -1
-1 0 1 4 10 12 12 8 9 7 6 5 5 5 6 7 4 4 3 0 -0 -1 -1 -1 -1 -1 -2 -2 -1 -1 -2 -1 -1 -1 -1 -1 -1 -1 -1 -1 -1 -1 -1 -1 -1 -1 -1 -1 -1
-0 0 4 7 9 12 12 8 7 6 5 5 6 4 5 6 3 3 1 -0 -0 -1 -1 -1 -1 -1 -1 -1 -1 -1 -2 -2 -2 -1 -1 -1 -1 -1 -1 -1 -1 -1 -1 -1 -1 -0 -1 -1 -1
1 2 4 9 10 8 8 7 6 6 5 5 5 7 4 2 3 1 -0 -0 -0 -0 -1 -1 -1 -1 -1 -1 -2 -2 -2 -2 -2 -1 -1 -1 -1 -1 -1 -1 -1 -1 -1 -1 -1 -0 -0 -0 -0
1 4 8 9 9 7 7 6 6 7 6 6 5 7 6 3 1 0 0 -0 0 -0 -1 -1 -1 -1 -1 -1 -1 -1 -2 -2 -2 -1 -1 -1 -1 -1 -1 -1 -1 -1 -1 -1 -1 -1 -1 -1 -1
5 5 10 11 9 7 6 5 6 6 5 5 6 6 5 2 2 1 0 0 -0 -0 -1 -1 0 -0 -1 -1 -1 -1 -1 -2 -2 -2 -1 -2 -1 -1 -1 -1 -1 -1 -1 -1 -1 -1 -1 -1 -1
6 7 9 9 9 8 7 5 6 6 6 6 4 6 5 3 1 1 0 -0 -0 -1 -1 -1 -1 -0 1 -0 -1 -1 -1 -1 -1 -2 -2 -2 -2 -2 -2 -2 -1 -1 -1 -1 -1 -1 -1 -1 -1
4 6 9 8 9 9 6 5 5 5 6 3 3 6 6 3 1 1 1 0 -0 -0 -1 -1 -1 -1 -1 -1 1 0 -0 -1 -1 -1 -1 -1 -1 -1 -1 -1 -2 -2 -1 -1 -1 -1 -1 -1 -1
3 8 10 9 9 8 5 6 4 3 5 4 4 4 3 2 1 2 2 1 1 0 -0 -1 -1 -1 -1 -1 -0 1 1 0 -0 -1 -0 -0 -1 -1 -1 -1 -1 -2 -2 -1 -1 -1 -1 -1 -1
6 8 9 6 6 7 6 6 5 5 5 5 4 3 2 2 3 3 3 3 2 1 0 -0 -1 -1 -1 -1 -1 -1 -1 -1 -1 -1 -1 -1 -1 -1 -1 1 0 -1 -1 -1 -1 -2 -1 -0 -0
6 8 6 6 6 5 6 6 5 6 7 5 5 4 3 3 3 3 3 3 2 1 0 -0 -0 -1 -1 -1 -1 -1 -1 -1 -1 -1 -1 -1 -1 -1 -1 -1 -1 -1 1 -1 -1 -1 -1 -1 -1
8 6 6 6 6 6 7 5 6 6 5 4 4 3 3 4 4 3 3 2 2 1 1 0 -0 -0 -1 -1 -1 -1 -1 -1 -1 -1 -1 -1 -1 -1 -1 -1 -1 -1 -1 -1 -1 -1 -1 -1 -1
7 6 6 6 6 6 6 6 6 6 5 4 3 3 3 3 3 2 2 2 1 2 1 0 -0 -0 -0 -0 -1 -1 -1 -1 -1 -1 -1 -1 -1 -1 -1 -1 -1 -1 -1 -1 -1 -1 -1 -1 -1
7 6 6 6 6 6 7 7 6 6 5 5 5 4 3 3 3 3 2 2 2 1 1 0 0 -0 -0 -0 -0 -0 -1 -1 -1 -1 -1 -1 -1 -1 -1 -1 -1 -1 -1 -1 -1 -0 -0 -0 -1
8 9 7 7 7 7 7 8 8 5 6 6 6 5 5 3 3 3 2 2 1 1 1 0 0 -0 -0 -0 -0 -1 -1 -1 -1 -1 -1 -1 -1 -1 -1 -0 -0 -1 -1 -1 -1 -1 -1 -0 -0
10 10 10 7 7 8 7 10 7 7 7 7 7 6 6 6 5 4 3 1 1 1 1 0 0 -0 -0 -0 -0 -0 -1 -1 -1 -1 -1 -1 -1 -1 -1 -0 -0 -1 -1 -1 -0 -0 0 0 0
11 13 12 11 8 8 8 9 8 6 7 7 7 7 6 6 6 6 6 6 5 2 1 1 0 0 0 -0 -0 -0 -1 -0 -1 -1 -1 -1 -1 -1 -0 -0 -1 -1 -0 -0 0 0 0 1 1
13 13 12 12 11 10 9 9 8 7 7 7 7 7 7 7 7 6 6 5 5 5 3 1 0 0 0 0 -0 -0 -0 -0 -1 -0 -1 -1 -1 -1 -1 -0 -0 -1 -0 0 0 1 0 1 1
9 11 12 12 11 11 11 10 9 8 8 8 8 8 8 7 6 6 6 5 5 5 5 5 2 0 0 1 1 1 1 1 0 -0 -0 -0 -0 -0 -0 -0 0 -0 0 1 0 1 2 2 1
9 11 12 12 11 11 12 12 10 10 11 10 9 8 8 8 7 6 6 5 5 5 6 5 4 2 0 0 0 1 1 0 0 0 0 -0 -0 0 0 0 0 0 1 1 1 2 3 2 2
10 11 11 12 12 12 13 13 13 11 10 10 9 8 8 9 9 7 6 5 5 5 5 5 4 3 1 0 0 0 0 1 1 1 0 -0 -0 -0 -0 -0 1 0 1 1 1 1 2 3 2
12 9 10 11 13 15 12 17 14 13 12 12 11 10 10 9 9 9 9 8 7 5 4 5 4 4 3 0 1 1 2 3 1 1 0 0 -1 -0 -0 -0 -0 0 0 1 1 1 1 2 3
10 9 10 10 12 13 13 15 13 13 14 13 12 11 11 10 10 10 10 9 9 8 7 7 7 6 5 4 4 3 3 3 2 2 2 1 1 0 0 -0 -0 0 0 0 0 1 1 1 2
7 9 10 11 12 18 13 15 15 14 13 13 12 12 12 11 11 11 10 10 9 9 8 8 8 8 7 6 5 4 4 4 4 3 3 3 2 1 1 1 1 -0 0 0 0 0 1 1 1
8 11 18 18 18 18 13 14 14 13 12 12 12 12 12 12 11 11 11 10 10 10 9 9 9 9 8 8 8 8 7 6 6 6 6 6 6 5 5 5 4 3 2 2 1 2 1 1 1
10 11 16 21 19 17 15 17 15 13 12 12 12 11 11 11 11 11 10 10 10 10 10 10 10 11 10 10 9 9 9 9 8 8 8 8 8 8 7 7 6 6 5 4 3 2 2 1 1
11 13 10 14 16 16 15 15 13 12 13 13 12 12 12 11 11 11 10 10 11 10 10 10 11 11 11 10 10 10 10 10 10 9 9 9 9 9 8 8 8 7 6 6 6 5 3 2 2
9 8 14 13 19 18 16 16 15 14 14 13 13 12 12 11 10 9 9 10 10 10 10 10 10 11 10 10 9 10 10 9 9 9 9 9 9 9 8 8 8 7 7 6 6 6 5 5 4
11 12 12 11 14 16 18 15 10 12 12 12 12 11 11 10 10 9 8 9 9 9 9 10 10 11 11 10 10 10 10 10 10 10 10 9 9 9 9 8 8 8 8 7 7 8 8 8 7
10 11 11 14 17 14 15 15 10 10 10 10 10 10 9 9 9 8 8 9 9 9 9 10 10 10 10 10 10 10 10 11 11 11 11 11 11 10 10 9 9 8 8 8 8 9 8 8 8